Location: P�rn�nmaa
(61.1833°N, 23.0000°E)
Time: 17:29:36
(UTC+00:00)

Cosmos 2219 Rocket - Pass Details

Date: 08 December 2019
Orbit: 826 x 848 km, 71.0° (Epoch: 21 January)

Event Time Altitude Azimuth Distance (km) Brightness Sun altitude
Rises 14:54:39 0° 172° (S) 3,370 5.6 -10.2°
Reaches altitude 10° 14:57:26 10° 159° (SSE) 2,444 4.7 -10.5°
Maximum altitude 15:01:55 25° 106° (ESE) 1,627 3.3 -11.0°
Enters shadow 15:05:14 15° 61° (ENE) 2,127 3.6 -11.3°
